Location: Newark
(41.9364°N, 2.8061°E)
Time: 09:14:51
(UTC+00:00)

Explorer 11/Cluster Stage 4 - Visible Passes

Search period start: 17 February 2020 00:00
Search period end: 27 February 2020 00:00
Orbit: 467 x 1259 km, 28.8° (Epoch: 16 February)

Date Brightness Start Highest point End Pass type
(mag) Time Alt. Az. Time Alt. Az. Time Alt. Az.
17 Feb 8.1 05:56:27 10° SSW 05:57:46 12° S 05:59:08 10° SSE visible
18 Feb 8.1 05:46:03 10° SSW 05:47:04 11° S 05:48:07 10° SSE visible
19 Feb 8.1 05:35:51 10° SSW 05:36:22 10° S 05:36:54 10° S visible
